星链-32393 (STARLINK-32393)

导读 | 豆包AI

STARLINK-32393是美国SpaceX公司在2024年11月7日发射的星链(Starlink)卫星,归属星链全球低轨互联网卫星星座。它属于星链近年批量部署的卫星,延续星链技术特性,运行于近地轨道,依托星链的相控阵天线、激光星间链路等技术,为全球偏远地区、海上航空等场景提供低延迟、高带宽的宽带互联网接入服务,也是星链完成全球覆盖组网的重要组成部分。

基本信息
目录编号:
61862
目录名称:
STARLINK-32393
国际标识:
2024-202T
轨道中心:
EARTH
卫星名称:
星链-32393
卫星全名:
星链-32393 (STARLINK-32393)
卫星状态:
在轨 (已飞行540 天)
发射日期:
2024-11-07 UTC
国别 :
美国 (US)
星等 :
--
轨道信息
数据来源 国际轨道数据
星历时间: 2026-04-30T22:02:44+0800
13小时前
查看轨道信息
半长轴: 6861.196km
偏心率: 0.0001406
轨道倾角: 42.999°
近地点辐角 260.885°
升交点赤经 304.972°
平近点角 99.184°
近地点: 482.094km
远地点: 484.024km
周期: 94.267分钟
每日圈数: 15.275768
详细信息
固有亮度:
5
最大亮度:
2.5
卫星平台:
Starlink V1.0
覆盖范围:
全球
运营商:
太空探索技术公司
运营商所在国:
美国
制造商(研发单位):
太空探索技术公司
制造商所在国:
美国
使用方式:
暂无
卫星简介
Starlink 计划是 SpaceX 推出的全球卫星互联网项目,通过发射低轨道卫星,为全球尤其是偏远地区提供高速、低延迟的互联网服务。自 2019 年起,Starlink 已部署数千颗卫星,旨在缩小全球数字鸿沟,推动互联网普及。该项目还为军事、航空等行业提供通信支持,带来广泛经济效益。
2D轨道图
3D轨道图
轨道高度分析图
轨道倾角分析图
轨道综合分析图
查看轨道综合分析图